Friday Harbor, WA
on Monday, February 11, 2013

Monday
Previous Day Next Day
Daily Summary
 ActualAverageRecord
Temperature
Mean Temperature °F °F  
Max Temperature 44°F 45°F 54°F (2004)
Min Temperature 37°F 34°F 27°F (2002)
Degree Days
Heating Degree Days 24    
Moisture
Dew Point 40°F   
Average Humidity 93    
Maximum Humidity 100    
Minimum Humidity 81    
Precipitation
Precipitation 0.00 in in in ()
Wind
Wind Speed 2 mph   
Max Wind Speed 8 mph   
Max Gust Speed mph   
Visibility 9 miles   
Events Rain   
Averages and records for this station are not official NWS values.
Key: T is trace of precipitation, MM is missing value
Source: NWS Daily Summary
Seasonal Weather Averages
Time(PST)TemperatureDew PointHumidity Pressure Visibility Wind DirectionWind SpeedGust SpeedPrecipitationEvents Conditions
12:05 AM 42.8°F 37.4°F 81% 30.34 in 10.0 miles Calm Calm - N/A   Overcast
12:53 AM 41.0°F 37.9°F 89% 30.34 in 10.0 miles Calm Calm - N/A   Overcast
1:53 AM 41.0°F 37.9°F 89% 30.34 in 10.0 miles Calm Calm - N/A   Overcast
2:19 AM 41.0°F 39.2°F 93% 30.34 in 10.0 miles Calm Calm - N/A   Overcast
2:33 AM 41.0°F 37.4°F 87% 30.34 in 10.0 miles Calm Calm - N/A   Overcast
2:53 AM 39.9°F 37.9°F 93% 30.33 in 10.0 miles Calm Calm - N/A   Overcast
3:53 AM 41.0°F 37.9°F 89% 30.32 in 10.0 miles Calm Calm - N/A   Overcast
4:24 AM 41.0°F 39.2°F 93% 30.32 in 10.0 miles Calm Calm - N/A   Overcast
4:46 AM 39.2°F 37.4°F 93% 30.32 in 10.0 miles Calm Calm - N/A   Overcast
4:53 AM 39.9°F 37.9°F 93% 30.32 in 10.0 miles Calm Calm - N/A   Overcast
5:53 AM 37.9°F 37.0°F 97% 30.33 in 10.0 miles Calm Calm - N/A   Overcast
6:15 AM 37.4°F 37.4°F 100% 30.32 in 10.0 miles Calm Calm - N/A   Overcast
6:26 AM 39.2°F 37.4°F 93% 30.32 in 10.0 miles Calm Calm - N/A   Overcast
6:39 AM 39.2°F 37.4°F 93% 30.32 in 10.0 miles Calm Calm - N/A   Overcast
6:53 AM 39.0°F 37.9°F 96% 30.32 in 10.0 miles Calm Calm - N/A   Overcast
7:09 AM 39.2°F 39.2°F 100% 30.32 in 10.0 miles Calm Calm - N/A   Overcast
7:51 AM 41.0°F 39.2°F 93% 30.32 in 7.0 miles Calm Calm - N/A   Overcast
7:53 AM 41.0°F 39.9°F 96% 30.32 in 6.0 miles Calm Calm - N/A   Overcast
8:53 AM 42.1°F 39.9°F 92% 30.33 in 10.0 miles SSW 3.5 mph - N/A   Overcast
9:06 AM 42.8°F 39.2°F 87% 30.33 in 10.0 miles South 4.6 mph - N/A   Overcast
9:53 AM 42.1°F 39.0°F 89% 30.34 in 10.0 miles SSE 5.8 mph - N/A   Overcast
10:19 AM 42.8°F 39.2°F 87% 30.34 in 2.0 miles SSE 4.6 mph - 0.00 in Rain Light Rain
10:26 AM 42.8°F 41.0°F 93% 30.34 in 1.8 miles SSE 4.6 mph - 0.00 in Rain Light Rain
10:34 AM 42.8°F 41.0°F 93% 30.33 in 2.5 miles SSE 8.1 mph - 0.00 in Rain Light Rain
10:42 AM 42.8°F 41.0°F 93% 30.34 in 4.0 miles SSE 5.8 mph - 0.00 in   Overcast
10:53 AM 42.1°F 39.9°F 92% 30.34 in 5.0 miles SE 6.9 mph - 0.00 in   Overcast
11:53 AM 43.0°F 39.9°F 89% 30.34 in 10.0 miles SE 8.1 mph - N/A   Unknown
12:17 PM 42.8°F 41.0°F 93% 30.34 in 10.0 miles SE 8.1 mph - N/A   Overcast
12:37 PM 42.8°F 41.0°F 93% 30.33 in 10.0 miles SE 6.9 mph - N/A   Overcast
12:53 PM 44.1°F 41.0°F 89% 30.33 in 10.0 miles SSE 5.8 mph - N/A   Overcast
1:02 PM 42.8°F 41.0°F 93% 30.33 in 10.0 miles SSE 5.8 mph - N/A   Overcast
1:53 PM 44.1°F 41.0°F 89% 30.33 in 10.0 miles SE 6.9 mph - N/A   Overcast
2:53 PM 43.0°F 42.1°F 97% 30.33 in 5.0 miles SE 8.1 mph - N/A   Overcast
3:53 PM 43.0°F 42.1°F 97% 30.33 in 4.0 miles SSE 4.6 mph - N/A   Overcast
4:00 PM 42.8°F 42.8°F 100% 30.33 in 1.8 miles SSE 5.8 mph - N/A   Overcast
4:06 PM 42.8°F 42.8°F 100% 30.33 in 2.0 miles SE 6.9 mph - N/A   Overcast
4:23 PM 42.8°F 42.8°F 100% 30.33 in 4.0 miles SE 4.6 mph - N/A   Overcast
4:53 PM 43.0°F 42.1°F 97% 30.33 in 10.0 miles SE 8.1 mph - N/A   Overcast
5:02 PM 44.6°F 42.8°F 93% 30.33 in 10.0 miles SE 5.8 mph - N/A   Overcast
5:53 PM 44.1°F 42.1°F 93% 30.34 in 10.0 miles SE 6.9 mph - N/A   Overcast
7:30 PM 44.6°F 42.8°F 93% 30.34 in 10.0 miles SSE 3.5 mph - N/A   Overcast
7:53 PM 44.1°F 42.1°F 93% 30.33 in 10.0 miles SSE 3.5 mph - N/A   Overcast
8:00 PM 44.6°F 42.8°F 93% 30.33 in 10.0 miles Calm Calm - N/A   Overcast
8:34 PM 44.6°F 42.8°F 93% 30.33 in 10.0 miles Variable 3.5 mph - N/A   Overcast
8:53 PM 44.1°F 42.1°F 93% 30.33 in 10.0 miles SSE 3.5 mph - N/A   Overcast
9:53 PM 44.1°F 43.0°F 96% 30.34 in 10.0 miles SSW 3.5 mph - N/A   Overcast
10:53 PM 44.1°F 42.1°F 93% 30.34 in 10.0 miles South 3.5 mph - N/A   Overcast
11:07 PM 44.6°F 42.8°F 93% 30.34 in 10.0 miles SSW 3.5 mph - N/A   Overcast
11:15 PM 44.6°F 42.8°F 93% 30.34 in 10.0 miles Calm Calm - N/A   Overcast
11:29 PM 44.6°F 42.8°F 93% 30.33 in 10.0 miles SSW 3.5 mph - N/A   Overcast
11:36 PM 44.6°F 42.8°F 93% 30.33 in 10.0 miles SSW 3.5 mph - N/A   Overcast
11:46 PM 44.6°F 42.8°F 93% 30.34 in 10.0 miles SSW 3.5 mph - N/A   Overcast
11:53 PM 44.1°F 42.1°F 93% 30.34 in 10.0 miles SW 4.6 mph - N/A   Overcast
Moon Phase
Feb. 11 Feb. 17 Feb. 25 Mar. 04 Mar. 11
Sunrise:07:25 AM (PST) Moon Rise:07:41 AM (PST)2/11
Sunset:05:27 PM (PST) Moon Set:07:45 PM (PST)2/11

Copyright © 2014 The Weather Underground, Inc.